sat.trackr.live / text

‹ back to catalog

STARLINK-36766

NORAD 68069 · 2026-042A

PAYLOAD ACTIVE UNKNOWN

§ Identity

Operator
Country
US
Launch date
2026-03-04
Launch site
AFETR
Launch vehicle
Mass (kg)
RCS (m²)

Purposes: comms

External: N2YO · Heavens-Above · Gunter

§ Orbital elements

Epoch: 2026-09-20T02:15:46.991232Z

Period
93.85 min
Inclination
53.1556°
Eccentricity
0.0002088
Mean motion
15.34408957 rev/d
Perigee alt
461.2 km
Apogee alt
464.1 km
Semi-major
6,840.8 km
B*
4.0753e-4
RAAN
351.8861°
Arg perigee
78.6738°
Mean anomaly
281.4499°
Rev number
3,212

§ Raw data

STARLINK-367661 68069U 26042A   26263.09429388  .00013421  00000+0  40753-3 0  99972 68069  53.1556 351.8861 0002088  78.6738 281.4499 15.34408957 32126

JSON: /api/v1/satellites/68069 · /tle

For live sub-satellite position, see the globe view (requires WebGL).

§ Visibility from observer

Set your observer location to see the next 7 days of passes ≥ 10°. The values pass through the URL so the page stays shareable.

No JS? Fill the form by hand. The geolocation button needs JavaScript.